| time (UTC) | temp F | wind direction | speed knots | gust knots | rain 1hr in | rain 24hr in | rain mn in | humidity % | barometer mb |
| 20260502233624 | 76 | 337 | 2.6 | 10.4 | 0.00 | 0.00 | 0.00 | 14 | 1017.9 |
| 20260502232703 | 76 | 310 | 2.6 | 10.4 | 0.00 | 0.00 | 0.00 | 13 | 1017.9 |
| 20260502231803 | 76 | 353 | 1.7 | 9.6 | 0.00 | 0.00 | 0.00 | 13 | 1017.9 |
| 20260502230903 | 76 | 22 | 0.9 | 9.6 | 0.00 | 0.00 | 0.00 | 14 | 1017.9 |
| 20260502230024 | 76 | 359 | 2.6 | 11.3 | 0.00 | 0.00 | 0.00 | 14 | 1017.9 |
| 20260502225403 | 76 | 12 | 4.3 | 11.3 | 0.00 | 0.00 | 0.00 | 14 | 1017.9 |
| 20260502224503 | 76 | 12 | 4.3 | 10.4 | 0.00 | 0.00 | 0.00 | 14 | 1017.9 |
| 20260502223603 | 75 | 14 | 3.5 | 9.6 | 0.00 | 0.00 | 0.00 | 15 | 1017.9 |
| 20260502222703 | 75 | 11 | 3.5 | 10.4 | 0.00 | 0.00 | 0.00 | 15 | 1017.9 |
| 20260502221803 | 74 | 22 | 3.5 | 8.7 | 0.00 | 0.00 | 0.00 | 15 | 1017.9 |
| 20260502220903 | 75 | 19 | 1.7 | 7.8 | 0.00 | 0.00 | 0.00 | 14 | 1017.9 |
| 20260502220024 | 74 | 18 | 2.6 | 11.3 | 0.00 | 0.00 | 0.00 | 15 | 1017.9 |
| 20260502215403 | 75 | 16 | 3.5 | 11.3 | 0.00 | 0.00 | 0.00 | 14 | 1017.9 |
| 20260502214524 | 75 | 16 | 4.3 | 10.4 | 0.00 | 0.00 | 0.00 | 14 | 1017.9 |
| 20260502213603 | 75 | 20 | 3.5 | 10.4 | 0.00 | 0.00 | 0.00 | 14 | 1017.9 |
| 20260502212703 | 75 | 36 | 5.2 | 16.5 | 0.00 | 0.00 | 0.00 | 15 | 1017.9 |
| 20260502211803 | 76 | 9 | 4.3 | 10.4 | 0.00 | 0.00 | 0.00 | 15 | 1017.9 |
| 20260502210903 | 75 | 21 | 3.5 | 10.4 | 0.00 | 0.00 | 0.00 | 16 | 1017.9 |
| 20260502210003 | 74 | 54 | 4.3 | 10.4 | 0.00 | 0.00 | 0.00 | 16 | 1017.9 |
| 20260502205424 | 74 | 55 | 4.3 | 8.7 | 0.00 | 0.00 | 0.00 | 16 | 1017.9 |
| 20260502204503 | 75 | 19 | 1.7 | 7.8 | 0.00 | 0.00 | 0.00 | 16 | 1017.9 |
| 20260502203603 | 73 | 43 | 3.5 | 8.7 | 0.00 | 0.00 | 0.00 | 18 | 1017.9 |
| 20260502202724 | 73 | 44 | 4.3 | 8.7 | 0.00 | 0.00 | 0.00 | 19 | 1017.9 |
| 20260502201803 | 72 | 25 | 3.5 | 10.4 | 0.00 | 0.00 | 0.00 | 20 | 1017.9 |
| 20260502200903 | 72 | 44 | 2.6 | 7.0 | 0.00 | 0.00 | 0.00 | 19 | 1017.9 |
| 20260502200003 | 72 | 43 | 3.5 | 8.7 | 0.00 | 0.00 | 0.00 | 19 | 1017.9 |
| 20260502195403 | 71 | 46 | 3.5 | 9.6 | 0.00 | 0.00 | 0.00 | 19 | 1017.9 |
| 20260502194503 | 72 | 20 | 3.5 | 9.6 | 0.00 | 0.00 | 0.00 | 20 | 1017.9 |
| 20260502193624 | 71 | 24 | 2.6 | 9.6 | 0.00 | 0.00 | 0.00 | 20 | 1017.9 |
| 20260502192703 | 71 | 16 | 3.5 | 9.6 | 0.00 | 0.00 | 0.00 | 18 | 1017.9 |
| 20260502191803 | 71 | 14 | 2.6 | 8.7 | 0.00 | 0.00 | 0.00 | 19 | 1017.9 |
| 20260502190903 | 70 | 10 | 2.6 | 8.7 | 0.00 | 0.00 | 0.00 | 21 | 1017.9 |
| 20260502190003 | 70 | 9 | 2.6 | 7.8 | 0.00 | 0.00 | 0.00 | 21 | 1017.9 |
| 20260502185403 | 71 | 359 | 2.6 | 7.8 | 0.00 | 0.00 | 0.00 | 19 | 1017.9 |
| 20260502184503 | 70 | 26 | 3.5 | 8.7 | 0.00 | 0.00 | 0.00 | 21 | 1017.9 |
| 20260502183603 | 69 | 16 | 3.5 | 9.6 | 0.00 | 0.00 | 0.00 | 21 | 1017.9 |
| 20260502182703 | 69 | 42 | 3.5 | 8.7 | 0.00 | 0.00 | 0.00 | 22 | 1017.9 |
| 20260502181803 | 69 | 31 | 2.6 | 7.8 | 0.00 | 0.00 | 0.00 | 23 | 1017.9 |
| 20260502180903 | 68 | 24 | 2.6 | 9.6 | 0.00 | 0.00 | 0.00 | 23 | 1017.9 |
| 20260502163603 | 62 | 152 | 0.9 | 6.1 | 0.00 | 0.00 | 0.00 | 29 | 1017.9 |
| 20260502162703 | 61 | 163 | 0.9 | 6.1 | 0.00 | 0.00 | 0.00 | 30 | 1017.9 |
| 20260502161803 | 59 | 195 | 2.6 | 8.7 | 0.00 | 0.00 | 0.00 | 30 | 1017.9 |
| 20260502160903 | 59 | 196 | 1.7 | 10.4 | 0.00 | 0.00 | 0.00 | 31 | 1017.9 |
| 20260502151803 | 56 | 180 | 4.3 | 11.3 | 0.00 | 0.00 | 0.00 | 33 | 1017.9 |
| 20260502150903 | 55 | 190 | 3.5 | 11.3 | 0.00 | 0.00 | 0.00 | 33 | 1017.9 |
| 20260502123603 | 50 | 204 | 1.7 | 7.0 | 0.00 | 0.00 | 0.00 | 37 | 1014.5 |
| 20260502122703 | 50 | 204 | 2.6 | 7.8 | 0.00 | 0.00 | 0.00 | 37 | 1014.5 |
| 20260502121803 | 50 | 207 | 2.6 | 6.1 | 0.00 | 0.00 | 0.00 | 37 | 1014.5 |
| 20260502120903 | 50 | 206 | 1.7 | 6.1 | 0.00 | 0.00 | 0.00 | 36 | 1014.5 |
| 20260502115403 | 48 | 204 | 2.6 | 8.7 | 0.00 | 0.00 | 0.00 | 35 | 1014.5 |
| 20260502114503 | 46 | 175 | 0.9 | 7.8 | 0.00 | 0.00 | 0.00 | 36 | 1014.5 |
| 20260502113603 | 45 | 13 | 0.0 | 2.6 | 0.00 | 0.00 | 0.00 | 35 | 1014.5 |
| 20260502112703 | 44 | 0 | 0.0 | 0.9 | 0.00 | 0.00 | 0.00 | 35 | 1014.5 |
| 20260502111803 | 44 | 0 | 0.0 | 0.0 | 0.00 | 0.00 | 0.00 | 36 | 1014.5 |
| 20260502110903 | 44 | 0 | 0.0 | 0.0 | 0.00 | 0.00 | 0.00 | 37 | 1014.5 |
| 20260502110024 | 46 | 0 | 0.0 | 0.0 | 0.00 | 0.00 | 0.00 | 36 | 1014.5 |
| 20260502105403 | 47 | 0 | 0.0 | 0.0 | 0.00 | 0.00 | 0.00 | 34 | 1014.5 |
| 20260502104503 | 48 | 13 | 0.9 | 3.5 | 0.00 | 0.00 | 0.00 | 30 | 1014.5 |
| 20260502103603 | 47 | 13 | 0.9 | 3.5 | 0.00 | 0.00 | 0.00 | 30 | 1014.5 |
| 20260502102703 | 47 | 0 | 0.0 | 0.0 | 0.00 | 0.00 | 0.00 | 30 | 1014.5 |
| 20260502101803 | 49 | 0 | 0.0 | 0.0 | 0.00 | 0.00 | 0.00 | 29 | 1014.5 |
| 20260502100903 | 49 | 13 | 0.0 | 2.6 | 0.00 | 0.00 | 0.00 | 28 | 1014.5 |
| 20260502090903 | 50 | 13 | 0.0 | 1.7 | 0.00 | 0.00 | 0.00 | 30 | 1014.5 |
| 20260502070903 | 55 | 0 | 0.0 | 0.0 | 0.00 | 0.00 | 0.00 | 23 | 1014.5 |
| 20260502070003 | 56 | 13 | 0.0 | 3.5 | 0.00 | 0.00 | 0.00 | 21 | 1014.5 |
| 20260502065403 | 56 | 13 | 0.9 | 4.3 | 0.00 | 0.00 | 0.00 | 21 | 1014.5 |
| 20260502064503 | 56 | 13 | 1.7 | 4.3 | 0.00 | 0.00 | 0.00 | 21 | 1014.5 |
| 20260502063603 | 56 | 13 | 0.0 | 1.7 | 0.00 | 0.00 | 0.00 | 21 | 1014.5 |
| 20260502062724 | 56 | 0 | 0.0 | 0.0 | 0.00 | 0.00 | 0.00 | 21 | 1014.5 |
| 20260502061803 | 56 | 13 | 1.7 | 4.3 | 0.00 | 0.00 | 0.00 | 21 | 1014.5 |
| 20260502060903 | 56 | 13 | 0.0 | 3.5 | 0.00 | 0.00 | 0.00 | 20 | 1014.5 |
| 20260502060003 | 57 | 0 | 0.0 | 0.0 | 0.00 | 0.00 | 0.00 | 20 | 1014.5 |
| 20260502055403 | 57 | 13 | 0.0 | 3.5 | 0.00 | 0.00 | 0.00 | 20 | 1014.5 |
| 20260502054503 | 56 | 0 | 0.0 | 0.9 | 0.00 | 0.00 | 0.00 | 20 | 1014.5 |
| 20260502053624 | 56 | 0 | 0.0 | 0.9 | 0.00 | 0.00 | 0.00 | 21 | 1014.5 |
| 20260502052703 | 57 | 0 | 0.0 | 0.0 | 0.00 | 0.00 | 0.00 | 19 | 1014.5 |
| 20260502051824 | 58 | 13 | 0.0 | 0.9 | 0.00 | 0.00 | 0.00 | 19 | 1014.5 |
| 20260502050903 | 58 | 13 | 0.0 | 2.6 | 0.00 | 0.00 | 0.00 | 19 | 1014.5 |
| 20260502050003 | 59 | 13 | 0.0 | 2.6 | 0.00 | 0.00 | 0.00 | 19 | 1014.5 |
| 20260502045403 | 59 | 13 | 0.0 | 1.7 | 0.00 | 0.00 | 0.00 | 18 | 1014.5 |
| 20260502044504 | 59 | 13 | 0.0 | 3.5 | 0.00 | 0.00 | 0.00 | 18 | 1014.5 |
| 20260502043603 | 60 | 13 | 0.0 | 2.6 | 0.00 | 0.00 | 0.00 | 18 | 1014.5 |
| 20260502042703 | 59 | 13 | 0.0 | 1.7 | 0.00 | 0.00 | 0.00 | 18 | 1014.5 |
| 20260502041803 | 59 | 13 | 0.0 | 3.5 | 0.00 | 0.00 | 0.00 | 18 | 1014.5 |
| 20260502040903 | 59 | 0 | 0.0 | 0.9 | 0.00 | 0.00 | 0.00 | 18 | 1014.5 |
| 20260502040003 | 58 | 13 | 0.0 | 0.9 | 0.00 | 0.00 | 0.00 | 18 | 1014.5 |
| 20260502033603 | 58 | 13 | 0.0 | 2.6 | 0.00 | 0.00 | 0.00 | 20 | 1003.1 |
| 20260502032703 | 58 | 13 | 0.0 | 4.3 | 0.00 | 0.00 | 0.00 | 20 | 1003.1 |
| 20260502031803 | 58 | 0 | 0.0 | 0.0 | 0.00 | 0.00 | 0.00 | 21 | 1003.1 |
| 20260502030903 | 59 | 0 | 0.0 | 0.0 | 0.00 | 0.00 | 0.00 | 21 | 1003.1 |
| 20260502030024 | 59 | 0 | 0.0 | 0.0 | 0.00 | 0.00 | 0.00 | 20 | 1003.1 |
| 20260502025403 | 59 | 0 | 0.0 | 0.0 | 0.00 | 0.00 | 0.00 | 21 | 1003.1 |
| 20260502024524 | 60 | 13 | 0.0 | 4.3 | 0.00 | 0.00 | 0.00 | 20 | 1003.1 |
| 20260502023603 | 60 | 0 | 0.0 | 0.0 | 0.00 | 0.00 | 0.00 | 21 | 1003.1 |
| 20260502022703 | 60 | 0 | 0.0 | 0.0 | 0.00 | 0.00 | 0.00 | 20 | 1003.1 |
| 20260502021803 | 61 | 0 | 0.0 | 0.0 | 0.00 | 0.00 | 0.00 | 19 | 1003.1 |
| 20260502020924 | 62 | 0 | 0.0 | 0.0 | 0.00 | 0.00 | 0.00 | 19 | 1003.1 |
| 20260502020003 | 62 | 13 | 0.0 | 4.3 | 0.00 | 0.00 | 0.00 | 18 | 1003.1 |
| 20260502015403 | 63 | 13 | 0.9 | 7.0 | 0.00 | 0.00 | 0.00 | 18 | 1003.1 |
| 20260502014503 | 64 | 15 | 2.6 | 9.6 | 0.00 | 0.00 | 0.00 | 17 | 1003.1 |
| 20260502013603 | 64 | 17 | 2.6 | 7.8 | 0.00 | 0.00 | 0.00 | 17 | 1003.1 |
| 20260502012703 | 65 | 27 | 3.5 | 7.8 | 0.00 | 0.00 | 0.00 | 17 | 1003.1 |
| 20260502011803 | 66 | 16 | 3.5 | 8.7 | 0.00 | 0.00 | 0.00 | 17 | 1003.1 |
| 20260502010903 | 66 | 7 | 2.6 | 7.0 | 0.00 | 0.00 | 0.00 | 17 | 1003.1 |
| 20260502010003 | 67 | 9 | 3.5 | 8.7 | 0.00 | 0.00 | 0.00 | 17 | 1003.1 |
| 20260502005403 | 67 | 6 | 1.7 | 7.0 | 0.00 | 0.00 | 0.00 | 16 | 1003.1 |
| 20260502004503 | 67 | 8 | 1.7 | 7.0 | 0.00 | 0.00 | 0.00 | 17 | 1003.1 |
| 20260502003603 | 68 | 32 | 2.6 | 7.8 | 0.00 | 0.00 | 0.00 | 15 | 1003.1 |
| 20260502002703 | 69 | 61 | 0.9 | 5.2 | 0.00 | 0.00 | 0.00 | 15 | 1003.1 |
| 20260502001803 | 69 | 61 | 0.9 | 4.3 | 0.00 | 0.00 | 0.00 | 15 | 1003.1 |
| 20260502000924 | 68 | 74 | 1.7 | 6.1 | 0.00 | 0.00 | 0.00 | 15 | 1003.1 |
| 20260502000003 | 68 | 98 | 0.0 | 6.1 | 0.00 | 0.00 | 0.00 | 17 | 1003.1 |
| 20260501235403 | 68 | 109 | 0.0 | 3.5 | 0.00 | 0.00 | 0.00 | 17 | 1003.1 |
| 20260501234503 | 67 | 110 | 0.9 | 3.5 | 0.00 | 0.00 | 0.00 | 16 | 1003.1 |